Location: Coupvray
(48.8929°N, 2.7967°E)
Time: 20:58:43
(UTC+00:00)

IRS-1C - Pass Details

Date: 14 July 2020
Orbit: 815 x 817 km, 98.8° (Epoch: 14 August)

Event Time Altitude Azimuth Distance (km) Brightness Sun altitude
Rises 02:50:49 0° 13° (NNE) 3,357 8.5 -9.3°
Reaches altitude 10° 02:53:10 10° 11° (N) 2,420 7.6 -9.1°
Maximum altitude 02:58:30 72° 289° (WNW) 863 4.2 -8.5°
Drops below altitude 10° 03:03:47 10° 206° (SSW) 2,402 6.0 -7.9°
Enters shadow 03:04:13 - 205° (SSW) 2,569 6.1 -7.8°
